User: anonymous   Login
Location: Unspecified
(0.0000°N, 0.0000°E)
Time: 22:13:49
(UTC+02:00)
Language:

Milstar 3 Cent rocket - Orbit

View from above orbital plane
View from above orbital plane
View from above satellite
View from above satellite

Ground track
Ground track

The orbit data is extracted from the following two-line orbital elements,

1 25725U 99023B   16205.37265075 0.00000050  00000-0  11218-3 0    07
2 25725  28.3141 276.5704 2386418  36.9799 323.0196  9.67240705    02
Epoch (UTC): 23 July 2016 08:56:37
Eccentricity: 0.2386418
inclination: 28.3141°
perigee height: 706 km
apogee height: 5147 km
right ascension of ascending node: 276.5704°
argument of perigee: 36.9799°
revolutions per day: 9.67240705
mean anomaly at epoch: 323.0196°
orbit number at epoch: 0

The dashed part of the orbit path shows where the satellite is in the earth's shadow,  

DLR